Location: Port Stanley
(42.6641°N, 81.2156°W)
Time: 23:37:40
(UTC-04:00)

ISS - Pass Details

Date: 06 July 2019
Orbit: 409 x 418 km, 51.6° (Epoch: 23 July)

Event Time Altitude Azimuth Distance (km) Brightness Sun altitude
Exits shadow 03:30:18 63° 272° (W) 461 -3.8 -19.0°
Maximum altitude 03:30:41 74° 327° (NNW) 430 -3.8 -18.9°
Drops below altitude 10° 03:34:00 10° 54° (NE) 1,478 0.0 -18.6°
Sets 03:36:06 0° 56° (NE) 2,341 1.2 -18.4°
